KEM150 FAKN-FLHN

Flight info

Callsign KEM150
Flight time N/A
Altitude 32000
Route XARMA UT433 ETMIT UN309 BONAL UM309 VFA
Aircraft CRJ9/M-SDFGIRWY/S

Departure

Time 2026-05-07 23:00
Airport Kruger Mpumalanga International Airport (FAKN)

Arrival

Time N/A
Airport Harry Mwanga Nkumbula International Airport (FLHN)
Time Latitude Longitude Altitude Speed Heading
2026-05-07 22:13 -25.38561 31.09963 2855 ft 0 kts 305°
2026-05-07 22:47 -25.38565 31.09969 2827 ft 3 kts 305°
2026-05-07 22:47 -25.38575 31.09985 2830 ft 2 kts 303°
2026-05-07 22:47 -25.38577 31.10003 2828 ft 3 kts 246°
2026-05-07 22:47 -25.38571 31.10012 2827 ft 0 kts 218°
2026-05-07 22:52 -25.38579 31.10005 2827 ft 4 kts 214°
2026-05-07 22:52 -25.38614 31.09987 2828 ft 7 kts 203°
2026-05-07 22:53 -25.38633 31.09982 2829 ft 0 kts 164°
2026-05-07 22:53 -25.38657 31.09995 2830 ft 6 kts 142°
2026-05-07 22:53 -25.38690 31.10044 2827 ft 11 kts 125°
2026-05-07 22:53 -25.38730 31.10108 2827 ft 0 kts 123°
2026-05-07 22:55 -25.38731 31.10110 2827 ft 0 kts 123°
2026-05-07 22:55 -25.38738 31.10121 2827 ft 4 kts 123°
2026-05-07 22:56 -25.38759 31.10163 2827 ft 7 kts 105°
2026-05-07 22:56 -25.38761 31.10208 2827 ft 3 kts 99°
2026-05-07 22:56 -25.38765 31.10213 2827 ft 2 kts 155°
2026-05-07 22:56 -25.38812 31.10192 2826 ft 12 kts 213°
2026-05-07 22:57 -25.38890 31.10131 2826 ft 16 kts 216°
2026-05-07 22:57 -25.38990 31.10052 2826 ft 19 kts 216°
2026-05-07 22:57 -25.39106 31.09960 2828 ft 21 kts 223°
2026-05-07 22:57 -25.39148 31.09944 2828 ft 0 kts 141°
2026-05-07 22:58 -25.39148 31.09946 2828 ft 0 kts 111°
2026-05-07 22:58 -25.39148 31.09947 2827 ft 0 kts 78°
2026-05-07 22:58 -25.39147 31.09949 2827 ft 0 kts 46°
2026-05-07 22:58 -25.39139 31.09954 2828 ft 5 kts 25°
2026-05-07 22:59 -25.39085 31.09984 2827 ft 0 kts 32°
2026-05-07 22:59 -25.38982 31.10060 2826 ft 53 kts 34°
2026-05-07 22:59 -25.38453 31.10459 2831 ft 127 kts 34°
2026-05-07 22:59 -25.37574 31.11128 2899 ft 175 kts 35°
2026-05-07 23:00 -25.36522 31.11985 3325 ft 200 kts 37°
2026-05-07 23:00 -25.35775 31.12609 3887 ft 199 kts 35°
2026-05-07 23:00 -25.34702 31.13501 4945 ft 196 kts 33°
2026-05-07 23:00 -25.33474 31.14200 5517 ft 209 kts
2026-05-07 23:01 -25.32030 31.13838 6003 ft 222 kts 319°
2026-05-07 23:01 -25.31178 31.12448 6668 ft 227 kts 278°
2026-05-07 23:01 -25.31399 31.10694 7458 ft 242 kts 249°
2026-05-07 23:01 -25.32027 31.08894 8189 ft 259 kts 256°
2026-05-07 23:02 -25.32363 31.06875 8924 ft 275 kts 264°
2026-05-07 23:02 -25.32510 31.04736 9660 ft 284 kts 269°
2026-05-07 23:02 -25.32412 31.02595 10180 ft 276 kts 277°
2026-05-07 23:02 -25.32070 31.00505 10441 ft 277 kts 284°
2026-05-07 23:03 -25.31458 30.98486 10704 ft 278 kts 292°
2026-05-07 23:03 -25.30614 30.96542 10809 ft 285 kts 297°
2026-05-07 23:03 -25.29544 30.94602 10858 ft 309 kts 301°
2026-05-07 23:03 -25.28251 30.92545 10913 ft 341 kts 303°
2026-05-07 23:04 -25.26806 30.90329 10967 ft 369 kts 303°
2026-05-07 23:04 -25.25267 30.87938 11010 ft 394 kts 303°
2026-05-07 23:04 -25.23710 30.85536 11038 ft 370 kts 303°
2026-05-07 23:04 -25.22244 30.83269 11274 ft 367 kts 303°
2026-05-07 23:05 -25.20775 30.80975 12306 ft 366 kts 303°
2026-05-07 23:05 -25.19305 30.78663 13163 ft 368 kts 303°
2026-05-07 23:05 -25.17831 30.76333 13932 ft 371 kts 304°
2026-05-07 23:05 -25.16338 30.73982 14616 ft 374 kts 304°
2026-05-07 23:06 -25.14839 30.71633 15397 ft 376 kts 304°
2026-05-07 23:06 -25.13316 30.69262 16084 ft 377 kts 304°
2026-05-07 23:06 -25.11792 30.66882 16726 ft 381 kts 304°
2026-05-07 23:06 -25.10258 30.64482 17330 ft 384 kts 304°
2026-05-07 23:07 -25.08712 30.62065 17963 ft 387 kts 304°
2026-05-07 23:07 -25.07169 30.59630 18591 ft 388 kts 304°
2026-05-07 23:07 -25.05632 30.57224 19126 ft 390 kts 304°
2026-05-07 23:07 -25.04065 30.54777 19641 ft 392 kts 304°
2026-05-07 23:08 -25.02483 30.52315 20155 ft 394 kts 303°
2026-05-07 23:08 -25.00892 30.49848 20674 ft 396 kts 303°
2026-05-07 23:08 -24.99298 30.47363 21170 ft 397 kts 303°
2026-05-07 23:08 -24.97697 30.44865 21649 ft 399 kts 303°
2026-05-07 23:09 -24.96093 30.42355 22112 ft 401 kts 303°
2026-05-07 23:09 -24.94463 30.39833 22579 ft 403 kts 303°
2026-05-07 23:09 -24.92844 30.37311 23037 ft 404 kts 303°
2026-05-07 23:09 -24.91250 30.34789 23459 ft 405 kts 302°
2026-05-07 23:10 -24.89630 30.32236 23830 ft 407 kts 303°
2026-05-07 23:10 -24.87991 30.29680 24182 ft 409 kts 303°
2026-05-07 23:10 -24.86350 30.27125 24555 ft 410 kts 303°
2026-05-07 23:10 -24.84698 30.24557 24851 ft 411 kts 303°
2026-05-07 23:11 -24.83028 30.21993 25156 ft 413 kts 303°
2026-05-07 23:11 -24.81359 30.19455 25428 ft 415 kts 303°
2026-05-07 23:11 -24.79662 30.16879 25752 ft 416 kts 303°
2026-05-07 23:11 -24.77976 30.14285 26233 ft 412 kts 303°
2026-05-07 23:12 -24.76332 30.11741 26768 ft 407 kts 303°
2026-05-07 23:12 -24.74688 30.09203 27015 ft 408 kts 303°
2026-05-07 23:12 -24.73036 30.06664 27251 ft 409 kts 303°
2026-05-07 23:12 -24.71409 30.04078 27509 ft 410 kts 301°
2026-05-07 23:13 -24.69813 30.01471 27783 ft 412 kts 302°
2026-05-07 23:13 -24.68226 29.98888 28054 ft 413 kts 301°
2026-05-07 23:13 -24.66620 29.96256 28287 ft 415 kts 301°
2026-05-07 23:13 -24.64998 29.93631 28532 ft 416 kts 302°
2026-05-07 23:14 -24.63358 29.91002 28807 ft 415 kts 302°
2026-05-07 23:14 -24.61735 29.88407 29339 ft 411 kts 302°
2026-05-07 23:14 -24.60116 29.85813 29544 ft 412 kts 302°
2026-05-07 23:14 -24.58495 29.83207 29776 ft 413 kts 302°
2026-05-07 23:15 -24.56865 29.80596 30074 ft 413 kts 301°
2026-05-07 23:15 -24.53600 29.75351 30295 ft 417 kts 301°
2026-05-07 23:15 -24.51977 29.72746 30448 ft 418 kts 302°
2026-05-07 23:16 -24.50328 29.70106 30609 ft 419 kts 302°
2026-05-07 23:16 -24.48675 29.67461 30743 ft 420 kts 302°
2026-05-07 23:16 -24.47023 29.64800 30873 ft 421 kts 301°
2026-05-07 23:16 -24.45376 29.62134 30996 ft 422 kts 301°
2026-05-07 23:17 -24.43730 29.59465 31109 ft 423 kts 301°
2026-05-07 23:17 -24.42075 29.56790 31215 ft 423 kts 301°
2026-05-07 23:17 -24.40436 29.54146 31308 ft 424 kts 301°
2026-05-07 23:17 -24.38772 29.51471 31457 ft 424 kts 301°
2026-05-07 23:18 -24.37121 29.48813 31789 ft 419 kts 301°
2026-05-07 23:18 -24.35479 29.46171 31935 ft 418 kts 301°
2026-05-07 23:18 -24.33838 29.43521 32032 ft 419 kts 301°
2026-05-07 23:19 -24.30553 29.38232 32104 ft 424 kts 301°
2026-05-07 23:19 -24.27201 29.32853 32123 ft 429 kts 301°
2026-05-07 23:20 -24.23827 29.27432 32120 ft 430 kts 301°
2026-05-07 23:20 -24.20501 29.22115 32131 ft 420 kts 301°
2026-05-07 23:21 -24.17231 29.16874 32121 ft 412 kts 301°
2026-05-07 23:21 -24.14016 29.11728 32096 ft 407 kts 301°
2026-05-07 23:22 -24.10832 29.06636 32120 ft 402 kts 301°
2026-05-07 23:22 -24.07687 29.01595 32124 ft 400 kts 301°
2026-05-07 23:23 -24.04561 28.96574 32133 ft 407 kts 301°
2026-05-07 23:23 -24.01349 28.91385 32153 ft 416 kts 301°
2026-05-07 23:24 -23.98066 28.86098 32145 ft 423 kts 301°
2026-05-07 23:24 -23.94731 28.80740 32141 ft 429 kts 301°
2026-05-07 23:25 -23.91372 28.75340 32129 ft 432 kts 302°
2026-05-07 23:25 -23.88013 28.69952 32130 ft 423 kts 302°
2026-05-07 23:26 -23.84715 28.64679 32149 ft 417 kts 301°
2026-05-07 23:26 -23.81468 28.59487 32127 ft 414 kts 301°
2026-05-07 23:27 -23.76556 28.51631 32136 ft 420 kts 301°
2026-05-07 23:27 -23.73269 28.46345 32142 ft 424 kts 301°
2026-05-07 23:28 -23.69931 28.40979 32136 ft 428 kts 301°
2026-05-07 23:28 -23.66592 28.35621 32143 ft 431 kts 301°
2026-05-07 23:29 -23.63200 28.30199 32143 ft 433 kts 301°
2026-05-07 23:29 -23.59794 28.24752 32149 ft 435 kts 301°
2026-05-07 23:30 -23.56414 28.19275 32148 ft 436 kts 301°
2026-05-07 23:30 -23.53014 28.13835 32147 ft 436 kts 301°
2026-05-07 23:31 -23.49608 28.08352 32131 ft 437 kts 301°
2026-05-07 23:31 -23.46197 28.02841 32145 ft 438 kts 301°
2026-05-07 23:32 -23.42795 27.97369 32150 ft 439 kts 301°
2026-05-07 23:32 -23.39366 27.91848 32150 ft 439 kts 301°
2026-05-07 23:33 -23.35934 27.86336 32151 ft 438 kts 301°
2026-05-07 23:33 -23.32542 27.80887 32149 ft 432 kts 301°
2026-05-07 23:34 -23.29200 27.75530 32125 ft 428 kts 301°
2026-05-07 23:34 -23.25841 27.70189 32138 ft 427 kts 304°
2026-05-07 23:35 -23.23730 27.67891 32147 ft 433 kts 318°
2026-05-07 23:35 -23.21243 27.66023 32158 ft 435 kts 321°
2026-05-07 23:35 -23.16255 27.62375 32157 ft 434 kts 320°
2026-05-07 23:36 -23.11345 27.58577 32161 ft 431 kts 318°
2026-05-07 23:36 -23.08749 27.56895 32154 ft 441 kts 331°
2026-05-07 23:36 -23.05790 27.55906 32165 ft 449 kts 340°
2026-05-07 23:37 -22.99748 27.54207 32151 ft 444 kts 335°
2026-05-07 23:37 -22.93988 27.51835 32161 ft 442 kts 332°
2026-05-07 23:38 -22.88278 27.49418 32162 ft 443 kts 333°
2026-05-07 23:38 -22.82486 27.47056 32166 ft 444 kts 333°
2026-05-07 23:39 -22.76685 27.44718 32161 ft 444 kts 333°
2026-05-07 23:39 -22.70920 27.42387 32163 ft 445 kts 333°
2026-05-07 23:40 -22.65112 27.40042 32167 ft 445 kts 333°
2026-05-07 23:40 -22.59306 27.37700 32172 ft 445 kts 333°
2026-05-07 23:41 -22.53482 27.35354 32165 ft 446 kts 333°
2026-05-07 23:41 -22.47707 27.33024 32155 ft 446 kts 333°
2026-05-07 23:42 -22.41876 27.30681 32161 ft 446 kts 334°
2026-05-07 23:42 -22.36036 27.28337 32166 ft 447 kts 333°
2026-05-07 23:43 -22.30234 27.26011 32174 ft 447 kts 334°
2026-05-07 23:43 -22.24385 27.23671 32141 ft 447 kts 334°
2026-05-07 23:44 -22.18500 27.21310 32167 ft 454 kts 334°
2026-05-07 23:44 -22.12541 27.18928 32173 ft 459 kts 334°
2026-05-07 23:45 -22.06561 27.16543 32185 ft 463 kts 334°
2026-05-07 23:45 -22.00493 27.14123 32169 ft 466 kts 334°
2026-05-07 23:46 -21.94397 27.11691 32160 ft 468 kts 334°
2026-05-07 23:46 -21.88263 27.09263 32163 ft 470 kts 335°
2026-05-07 23:47 -21.82072 27.07022 32174 ft 473 kts 336°
2026-05-07 23:47 -21.76880 27.05144 32177 ft 473 kts 336°
2026-05-07 23:48 -21.69563 27.02495 32150 ft 475 kts 336°
2026-05-07 23:48 -21.64355 27.00614 32171 ft 475 kts 336°
2026-05-07 23:49 -21.57059 26.97985 32179 ft 476 kts 336°
2026-05-07 23:49 -21.51798 26.96090 32183 ft 476 kts 336°
2026-05-07 23:50 -21.45537 26.93836 32183 ft 476 kts 336°
2026-05-07 23:50 -21.39253 26.91574 32171 ft 476 kts 336°
2026-05-07 23:51 -21.32965 26.89321 32181 ft 477 kts 336°
2026-05-07 23:51 -21.26671 26.87056 32191 ft 477 kts 336°
2026-05-07 23:52 -21.20407 26.84812 32192 ft 478 kts 336°
2026-05-07 23:52 -21.14126 26.82471 32168 ft 476 kts 334°
2026-05-07 23:53 -21.07935 26.79916 32188 ft 476 kts 334°
2026-05-07 23:53 -21.01741 26.77369 32191 ft 476 kts 334°
2026-05-07 23:54 -20.95585 26.74841 32190 ft 477 kts 334°
2026-05-07 23:54 -20.89387 26.72295 32189 ft 477 kts 334°
2026-05-07 23:55 -20.83193 26.69749 32176 ft 477 kts 334°
2026-05-07 23:55 -20.76989 26.67210 32186 ft 477 kts 334°
2026-05-07 23:56 -20.71719 26.65052 32184 ft 467 kts 334°
2026-05-07 23:56 -20.65701 26.62589 32181 ft 459 kts 334°
2026-05-07 23:57 -20.59770 26.60163 32176 ft 453 kts 334°
2026-05-07 23:57 -20.53912 26.57771 32173 ft 448 kts 334°
2026-05-07 23:58 -20.48144 26.55417 32181 ft 445 kts 334°
2026-05-07 23:58 -20.42355 26.53055 32180 ft 443 kts 334°
2026-05-07 23:59 -20.36642 26.50724 32177 ft 440 kts 334°
2026-05-07 23:59 -20.30921 26.48393 32180 ft 439 kts 334°
2026-05-08 00:00 -20.25205 26.46069 32175 ft 439 kts 334°
2026-05-08 00:00 -20.19489 26.43743 32179 ft 439 kts 334°
2026-05-08 00:01 -20.13804 26.41432 32181 ft 440 kts 334°
2026-05-08 00:01 -20.08077 26.39106 32181 ft 440 kts 334°
2026-05-08 00:02 -20.02346 26.36784 32176 ft 440 kts 334°
2026-05-08 00:02 -19.96609 26.34457 32176 ft 441 kts 334°
2026-05-08 00:03 -19.90876 26.32135 32175 ft 441 kts 334°
2026-05-08 00:03 -19.85171 26.29825 32174 ft 441 kts 334°
2026-05-08 00:04 -19.79412 26.27495 32178 ft 441 kts 334°
2026-05-08 00:04 -19.73699 26.25192 32166 ft 442 kts 334°
2026-05-08 00:05 -19.67952 26.22868 32170 ft 441 kts 334°
2026-05-08 00:05 -19.62208 26.20525 32173 ft 442 kts 334°
2026-05-08 00:06 -19.56442 26.18223 32169 ft 442 kts 334°
2026-05-08 00:06 -19.50661 26.15965 32169 ft 443 kts 335°
2026-05-08 00:07 -19.44877 26.13782 32170 ft 443 kts 335°
2026-05-08 00:07 -19.39060 26.11586 32161 ft 443 kts 335°
2026-05-08 00:08 -19.33240 26.09387 32166 ft 444 kts 335°
2026-05-08 00:08 -19.27273 26.07570 32170 ft 449 kts 342°
2026-05-08 00:09 -19.21112 26.06322 32170 ft 451 kts 343°
2026-05-08 00:09 -19.14966 26.04994 32140 ft 450 kts 342°
2026-05-08 00:10 -19.08871 26.03633 32115 ft 451 kts 342°
2026-05-08 00:10 -19.02615 26.02230 31626 ft 473 kts 343°
2026-05-08 00:11 -18.99368 26.01503 31519 ft 480 kts 343°
2026-05-08 00:11 -18.96084 26.00777 31540 ft 483 kts 343°
2026-05-08 00:11 -18.92832 26.00055 30704 ft 475 kts 343°
2026-05-08 00:11 -18.89600 25.99324 30193 ft 473 kts 343°
2026-05-08 00:12 -18.86376 25.98610 28981 ft 472 kts 344°
2026-05-08 00:12 -18.83177 25.97903 27893 ft 466 kts 344°
2026-05-08 00:12 -18.80024 25.97203 26750 ft 459 kts 345°
2026-05-08 00:12 -18.76870 25.96495 25216 ft 468 kts 345°
2026-05-08 00:13 -18.73667 25.95777 24350 ft 474 kts 345°
2026-05-08 00:13 -18.70453 25.95067 23308 ft 470 kts 346°
2026-05-08 00:13 -18.67270 25.94367 22330 ft 464 kts 345°
2026-05-08 00:13 -18.64129 25.93671 21443 ft 457 kts 345°
2026-05-08 00:14 -18.61039 25.92984 20595 ft 451 kts 345°
2026-05-08 00:14 -18.57978 25.92305 19786 ft 445 kts 345°
2026-05-08 00:14 -18.54967 25.91638 18960 ft 441 kts 345°
2026-05-08 00:14 -18.51976 25.90972 18129 ft 437 kts 345°
2026-05-08 00:15 -18.49017 25.90319 17307 ft 431 kts 345°
2026-05-08 00:15 -18.47921 25.90077 17023 ft 429 kts 345°
2026-05-08 00:16 -18.47527 25.89990 16923 ft 429 kts 345°
2026-05-08 00:18 -18.46866 25.89845 16786 ft 427 kts 345°
2026-05-08 00:19 -18.46482 25.89760 16695 ft 425 kts 345°